Location: Great Falls
(47.5000°N, 111.3000°W)
Time: 07:27:26
(UTC-06:00)

ISS - Pass Details

Date: 21 April 2025
Orbit: 416 x 420 km, 51.6° (Epoch: 15 May)

Event Time Altitude Azimuth Distance (km) Brightness Sun altitude
Exits shadow 04:59:46 12° 180° (S) 1,352 -1.5 -13.6°
Maximum altitude 05:01:47 19° 138° (SE) 1,045 -1.7 -13.3°
Drops below altitude 10° 05:04:16 10° 90° (E) 1,495 -0.1 -13.0°
Sets 05:06:45 0° 73° (ENE) 2,363 1.7 -12.6°
